Notices

What's New in latest Release from April 7th, 2021:

- Updated Glossary, including Speed of Maximum Gust, and Total Hourly Precipitation

- Updated national and regional climate services offices contacts and prices information

- Addition of station inventory lists for 1981-2010, 1971-2000, and 1961-1990 Normals.

If you haven't already, please take our survey and provide feedback about our website: https://eccc.sondage-survey.ca/f/LanguageSelection.aspx?s=442ca660-fcf1-47c0-95a9-59707d6fd709

Hourly Data Report for January 10, 2021

EDMUNDSTON
NEW BRUNSWICK
Current Station Operator: ECCC - MSC

47°25'00.000" N
68°19'28.040" W
154.20 m
8101303
71590
ERM

Download Data

Hourly Data (January 2021)
Hourly Data Report for January 10, 2021
TIME
LST
Temp Definition
°C
Dew Point Definition
°C
Rel Hum Definition
%
Precip. Amount Definition
mm

Wind Dir Definition
10's deg

Wind Spd Definition
km/h
Visibility Definition
km
Stn Press Definition
kPa
Hmdx Definition


Wind Chill Definition


Weather Definition


00:00 -5.3 LegendMM LegendMM 0.0 30 8   99.50   -9 LegendNANA
01:00 -4.4 LegendMM LegendMM 0.0 31 12   99.53   -9 LegendNANA
02:00 -3.8 LegendMM LegendMM 0.0 32 14   99.56   -9 LegendNANA
03:00 -3.9 LegendMM LegendMM 0.0 31 14   99.65   -9 LegendNANA
04:00 -4.3 LegendMM LegendMM 0.0 32 15   99.71   -10 LegendNANA
05:00 -4.8 LegendMM LegendMM 0.0 32 16   99.74   -11 LegendNANA
06:00 -5.0 LegendMM LegendMM 0.0 32 10   99.78   -9 LegendNANA
07:00 -5.4 LegendMM LegendMM 0.0 33 17   99.85   -11 LegendNANA
08:00 -5.6 LegendMM LegendMM 0.0 31 12   99.89   -11 LegendNANA
09:00 -5.9 LegendMM LegendMM 0.0 34 13   99.97   -11 LegendNANA
10:00 -6.1 LegendMM LegendMM 0.0 30 13   100.04   -11 LegendNANA
11:00 -5.7 LegendMM LegendMM 0.0 33 15   100.10   -11 LegendNANA
12:00 -5.5 LegendMM LegendMM 0.0 32 12   100.10   -10 LegendNANA
13:00 -4.9 LegendMM LegendMM 0.0 30 13   100.03   -10 LegendNANA
14:00 -3.8 LegendMM LegendMM 0.0 29 13   100.01   -9 LegendNANA
15:00 -3.7 LegendMM LegendMM 0.0 28 14   100.03   -9 LegendNANA
16:00 -3.9 LegendMM LegendMM 0.0 30 12   100.09   -9 LegendNANA
17:00 -5.4 LegendMM LegendMM 0.0 30 7   100.12   -9 LegendNANA
18:00 -9.8 LegendMM LegendMM 0.0 31 3   100.16   -12 LegendNANA
19:00 -13.1 LegendMM LegendMM 0.0 32 3   100.17   -15 LegendNANA
20:00 -14.5 LegendMM LegendMM 0.0 29 3   100.23   -17 LegendNANA
21:00 -15.5 LegendMM LegendMM 0.2 32 4   100.22   -18 LegendNANA
22:00 -16.6 LegendMM LegendMM 0.0   0   100.25     LegendNANA
23:00 -16.7 LegendMM LegendMM 0.0 33 3   100.27   -19 LegendNANA

Notes on Data Quality.

Legend

  • E = Estimated
  • M = Missing
  • NA = Not Available*
  • [empty] = Indicates an unobserved value
Date modified: